Погода в Суходоле

Россия / Волгоградская область     48°37′01″N   44°53′23″E
темп.,
°C
ветер,
м/с
пор.,
м/с
влажн.,
%
обл.,
%
осадки,
мм/ч
давл.,
гПа
погр.,
м
7 мая, пт
пт700:00+13юв4104798 0.0 1015179
03:00+12ю51257100 0.0 1015255
06:00+12ю41065100 0.0 1016288
09:00+17ю794495 0.0 10161010
12:00+20ю7736100 0.0 10161678
15:00+20ююз5738100 0.0 10151531
18:00+20зюз354897 0.0 1014172
21:00+15зюз346060 0.0 101657
8 мая, сб
сб800:00+13сз48814 0.0 1017208
03:00+11сз33830 0.0 101734
06:00+12сз2478100 0.0 1018158
09:00+16з235124 0.0 1017706
12:00+20зюз34405 0.0 10161306
15:00+23ю353788 0.0 10152048
18:00+22ююв3547100 0.0 1013131
21:00+19ююв465186 0.0 101394
9 мая, вс
вс900:00+17ююв355398 0.0 101273
03:00+16ююв51154100 0.0 1011241
06:00+15ююв41153100 0.0 1011333
09:00+18ю71046100 0.0 1011764
12:00+22ю7838100 0.0 10101664
15:00+22ююв5842100 0.0 10081698
18:00+18сз81160100 0.0 1008356
21:00+9сз81381100 0.4 1011542
10 мая, пн
пн1000:00+9сз71287100 2.3 1011572
03:00+8зсз71191100 6.1 1011645
06:00+8зсз81189100 3.1 1012625
09:00+8з7887100 5.7 1012712
12:00+9з5780100 0.0 1013745
15:00+11зюз6671100 0.1 10151074
18:00+10зюз4672100 0.0 1016954
21:00+9юз2382100 0.4 101777
11 мая, вт
вт1100:00+8ююз1289100 0.6 101885
03:00+7ю3586100 0.6 101995
06:00+9юв34815 0.0 1021213
09:00+13юв3461100 0.0 1023982
12:00+16юв3451100 0.0 10231326
15:00+17юв2345100 0.0 10231763
18:00+16ссз2357100 0.0 1021140
21:00+11св5979100 0.0 1022281